Weather History for Pensacola NAS, FL

Change the Weather History Date:

Sunday, December 23, 2012

  Actual Average Record
Temperature  
Mean Temperature 50 °F -  
Max Temperature 64 °F 59 °F 71 °F (2001)
Min Temperature 35 °F 40 °F 30 °F (2000)
Degree Days  
Heating Degree Days 16    
Moisture  
Dew Point 45 °F    
Average Humidity 82    
Maximum Humidity 100    
Minimum Humidity 64    
Precipitation  
Precipitation 0.00 in - - ()
Sea Level Pressure  
Sea Level Pressure 30.18 in    
Wind  
Wind Speed 3 mph (SE)    
Max Wind Speed 13 mph    
Max Gust Speed -    
Visibility 10 miles    
Events Rain    
Averages and records for this station are not official NWS values.
T = Trace of Precipitation, MM = Missing Value Source: NWS Daily Summary

Daily Weather History Graph

Daily Weather History Graph

Search for Another Location

Airport:

Trip Planner

Search our weather history database for the weather conditions in past years. The results will help you decide how hot, cold, wet, or windy it might be!

Date:

Astronomy

Dec. 23, 2012 Rise Set
Actual Time 6:43 AM CST 4:54 PM CST
Civil Twilight 6:16 AM CST 5:20 PM CST
Nautical Twilight 5:46 AM CST 5:50 PM CST
Astronomical Twilight 5:17 AM CST 6:20 PM CST
Moon 1:37 PM CST (12/23) 2:34 AM CST (12/23)
Length of Visible Light 11h 04m
Length of Day
10h 11m
Waxing Gibbous, 82% of the Moon is Illuminated
Dec 23
Waxing Gibbous
Dec 28
Full
Jan 4
Last Quarter
Jan 11
New
Jan 18
First Quarter

Hourly Weather History & Observations

Time (CST) Temp. Windchill Dew Point Humidity Pressure Visibility Wind Dir Wind Speed Gust Speed Precip Events Conditions
12:56 AM 36.0 °F - 35.1 °F 97% 30.25 in 10.0 mi Calm Calm - 0.00 in   Clear
1:40 AM 35.6 °F - 35.6 °F 100% 30.23 in 10.0 mi Calm Calm - 0.00 in Rain Light Freezing Rain
1:56 AM 36.0 °F - 35.1 °F 97% 30.23 in 10.0 mi Calm Calm - 0.00 in Rain Light Freezing Rain
2:08 AM 35.6 °F - 35.6 °F 100% 30.22 in 10.0 mi Calm Calm - 0.00 in   Clear
2:56 AM 35.1 °F - 35.1 °F 100% 30.22 in 6.0 mi Calm Calm - 0.00 in   Clear
3:56 AM 37.9 °F - 37.0 °F 97% 30.21 in 10.0 mi Calm Calm - 0.00 in   Clear
4:56 AM 37.9 °F 34.4 °F 37.0 °F 97% 30.24 in 10.0 mi NNW 4.6 mph - N/A   Clear
5:56 AM 37.9 °F - 37.9 °F 100% 30.24 in 10.0 mi Calm Calm - N/A   Clear
6:56 AM 37.0 °F - 37.0 °F 100% 30.25 in 9.0 mi Calm Calm - 0.00 in Rain Light Rain
7:56 AM 46.0 °F 44.8 °F 43.0 °F 89% 30.25 in 10.0 mi NE 3.5 mph - N/A   Clear
8:56 AM 46.9 °F - 44.1 °F 90% 30.26 in 10.0 mi Calm Calm - N/A   Clear
9:24 AM 48.2 °F - 42.8 °F 82% 30.25 in 10.0 mi NE 3.5 mph - N/A   Overcast
9:56 AM 48.9 °F - 44.1 °F 83% 30.27 in 10.0 mi WNW 3.5 mph - N/A   Overcast
10:56 AM 54.0 °F - 43.0 °F 66% 30.23 in 10.0 mi East 4.6 mph - N/A   Overcast
11:56 AM 55.9 °F - 44.1 °F 64% 30.20 in 10.0 mi ENE 3.5 mph - N/A   Overcast
12:56 PM 55.9 °F - 45.0 °F 67% 30.17 in 10.0 mi Calm Calm - N/A   Overcast
1:56 PM 55.9 °F - 45.0 °F 67% 30.15 in 10.0 mi ENE 5.8 mph - N/A   Overcast
2:56 PM 57.0 °F - 46.0 °F 67% 30.14 in 10.0 mi NE 4.6 mph - N/A   Overcast
3:56 PM 55.9 °F - 48.0 °F 75% 30.12 in 10.0 mi East 5.8 mph - N/A   Overcast
4:56 PM 61.0 °F - 50.0 °F 67% 30.10 in 10.0 mi South 10.4 mph - N/A   Overcast
5:30 PM 60.8 °F - 51.8 °F 72% 30.10 in 10.0 mi South 8.1 mph - N/A   Overcast
5:56 PM 61.0 °F - 51.1 °F 70% 30.10 in 10.0 mi South 11.5 mph - N/A   Mostly Cloudy
6:56 PM 62.1 °F - 52.0 °F 70% 30.09 in 10.0 mi South 12.7 mph - N/A   Overcast
7:56 PM 63.0 °F - 53.1 °F 70% 30.09 in 10.0 mi South 11.5 mph - N/A   Overcast
8:56 PM 63.0 °F - 54.0 °F 72% 30.08 in 10.0 mi South 12.7 mph - N/A   Overcast
9:56 PM 63.0 °F - 55.0 °F 75% 30.09 in 10.0 mi South 10.4 mph - N/A   Mostly Cloudy
10:56 PM 64.0 °F - 55.9 °F 75% 30.07 in 10.0 mi South 10.4 mph - N/A   Overcast
11:56 PM 63.0 °F - 57.0 °F 81% 30.05 in 10.0 mi South 9.2 mph - N/A   Overcast